| time (UTC) | temp F | wind direction | speed knots | gust knots | rain 1hr in | rain 24hr in | rain mn in | humidity % | barometer mb |
| 20260906150656 | 93 | 110 | 0.9 | 2.6 | 0.00 | 0.00 | 0.00 | 53 | 1013.1 |
| 20260906150154 | 92 | 272 | 1.7 | 3.5 | 0.00 | 0.00 | 0.00 | 53 | 1013.2 |
| 20260906145655 | 92 | 85 | 0.9 | 3.5 | 0.00 | 0.00 | 0.00 | 55 | 1013.1 |
| 20260906145155 | 92 | 241 | 0.9 | 3.5 | 0.00 | 0.00 | 0.00 | 55 | 1013.1 |
| 20260906144654 | 91 | 99 | 0.0 | 2.6 | 0.00 | 0.00 | 0.00 | 56 | 1013.1 |
| 20260906144507 | 91 | 78 | 1.7 | 2.6 | 0.00 | 0.00 | 0.00 | 56 | 1013.1 |
| 20260906143655 | 90 | 47 | 0.9 | 5.2 | 0.00 | 0.00 | 0.00 | 56 | 1013.2 |
| 20260906143156 | 90 | 97 | 3.5 | 5.2 | 0.00 | 0.00 | 0.00 | 57 | 1013.2 |
| 20260906142729 | 88 | 54 | 0.9 | 2.6 | 0.00 | 0.00 | 0.00 | 59 | 1013.3 |
| 20260906142712 | 90 | 66 | 2.6 | 4.3 | 0.00 | 0.00 | 0.00 | 57 | 1013.3 |
| 20260906142309 | 89 | 1 | 0.9 | 2.6 | 0.00 | 0.00 | 0.00 | 58 | 1013.3 |
| 20260906141153 | 87 | 109 | 0.9 | 1.7 | 0.00 | 0.00 | 0.00 | 63 | 1013.3 |
| 20260906141015 | 86 | 244 | 0.0 | 1.7 | 0.00 | 0.00 | 0.00 | 65 | 1013.3 |
| 20260906140155 | 86 | 206 | 0.9 | 2.6 | 0.00 | 0.00 | 0.00 | 66 | 1013.4 |
| 20260906135652 | 85 | 30 | 0.0 | 3.5 | 0.00 | 0.00 | 0.00 | 68 | 1013.3 |
| 20260906135523 | 85 | 226 | 0.9 | 3.5 | 0.00 | 0.00 | 0.00 | 70 | 1013.3 |
| 20260906134650 | 83 | 217 | 1.7 | 2.6 | 0.00 | 0.00 | 0.00 | 70 | 1013.3 |
| 20260906134150 | 83 | 237 | 0.9 | 3.5 | 0.00 | 0.00 | 0.00 | 72 | 1013.2 |
| 20260906133648 | 83 | 235 | 0.9 | 3.5 | 0.00 | 0.00 | 0.00 | 73 | 1013.3 |
| 20260906133148 | 82 | 275 | 1.7 | 2.6 | 0.00 | 0.00 | 0.00 | 76 | 1013.3 |
| 20260906132643 | 81 | 204 | 0.9 | 1.7 | 0.00 | 0.00 | 0.00 | 75 | 1013.3 |
| 20260906132145 | 81 | 206 | 0.0 | 1.7 | 0.00 | 0.00 | 0.00 | 76 | 1013.3 |
| 20260906131644 | 80 | 217 | 0.0 | 1.7 | 0.00 | 0.00 | 0.00 | 77 | 1013.4 |
| 20260906131142 | 80 | 209 | 0.0 | 1.7 | 0.00 | 0.00 | 0.00 | 77 | 1013.4 |
| 20260906130640 | 80 | 203 | 0.0 | 0.0 | 0.00 | 0.00 | 0.00 | 77 | 1013.4 |
| 20260906130141 | 80 | 203 | 0.0 | 0.0 | 0.00 | 0.00 | 0.00 | 77 | 1013.4 |
| 20260906125637 | 79 | 199 | 0.0 | 0.9 | 0.00 | 0.00 | 0.00 | 77 | 1013.3 |
| 20260906125130 | 79 | 161 | 0.0 | 0.9 | 0.00 | 0.00 | 0.00 | 78 | 1013.3 |
| 20260906124630 | 79 | 68 | 0.0 | 1.7 | 0.00 | 0.00 | 0.00 | 78 | 1013.2 |
| 20260906124129 | 78 | 83 | 0.0 | 1.7 | 0.00 | 0.00 | 0.00 | 79 | 1013.2 |
| 20260906123630 | 78 | 61 | 0.0 | 2.6 | 0.00 | 0.00 | 0.00 | 80 | 1013.1 |
| 20260906123127 | 77 | 344 | 0.0 | 2.6 | 0.00 | 0.00 | 0.00 | 80 | 1013.1 |
| 20260906122624 | 77 | 23 | 0.0 | 2.6 | 0.00 | 0.00 | 0.00 | 81 | 1013.0 |
| 20260906122123 | 77 | 80 | 1.7 | 2.6 | 0.00 | 0.00 | 0.00 | 81 | 1012.9 |
| 20260906121621 | 76 | 58 | 0.0 | 2.6 | 0.00 | 0.00 | 0.00 | 83 | 1012.7 |
| 20260906121441 | 76 | 0 | 1.7 | 2.6 | 0.00 | 0.00 | 0.00 | 82 | 1012.7 |
| 20260906120621 | 76 | 75 | 0.0 | 0.0 | 0.00 | 0.00 | 0.00 | 82 | 1012.6 |
| 20260906120442 | 76 | 0 | 0.0 | 0.0 | 0.00 | 0.00 | 0.00 | 81 | 1012.5 |
| 20260906115618 | 76 | 0 | 0.0 | 0.0 | 0.00 | 0.00 | 0.00 | 81 | 1012.4 |
| 20260906115118 | 77 | 0 | 0.0 | 0.0 | 0.00 | 0.00 | 0.00 | 80 | 1012.3 |
| 20260906114619 | 77 | 0 | 0.0 | 0.0 | 0.00 | 0.00 | 0.00 | 80 | 1012.2 |
| 20260906114117 | 77 | 0 | 0.0 | 0.0 | 0.00 | 0.00 | 0.00 | 80 | 1012.2 |
| 20260906113615 | 77 | 0 | 0.0 | 0.0 | 0.00 | 0.00 | 0.00 | 80 | 1012.0 |
| 20260906113116 | 77 | 0 | 0.0 | 0.0 | 0.00 | 0.00 | 0.00 | 79 | 1012.0 |
| 20260906112615 | 78 | 296 | 0.0 | 0.0 | 0.00 | 0.00 | 0.00 | 78 | 1012.0 |
| 20260906112110 | 78 | 274 | 0.0 | 0.0 | 0.00 | 0.00 | 0.00 | 77 | 1012.0 |
| 20260906111606 | 79 | 1 | 0.0 | 0.0 | 0.00 | 0.00 | 0.00 | 76 | 1011.9 |
| 20260906111105 | 79 | 1 | 0.0 | 0.0 | 0.00 | 0.00 | 0.00 | 75 | 1011.8 |
| 20260906110605 | 79 | 1 | 0.0 | 2.6 | 0.00 | 0.00 | 0.00 | 75 | 1011.8 |
| 20260906110423 | 79 | 72 | 0.0 | 3.5 | 0.00 | 0.00 | 0.00 | 75 | 1011.8 |
| 20260906105603 | 80 | 343 | 0.9 | 3.5 | 0.00 | 0.00 | 0.00 | 75 | 1011.7 |
| 20260906105103 | 79 | 302 | 1.7 | 3.5 | 0.00 | 0.00 | 0.00 | 75 | 1011.7 |
| 20260906104604 | 79 | 285 | 0.0 | 4.3 | 0.00 | 0.00 | 0.00 | 75 | 1011.8 |
| 20260906104103 | 79 | 293 | 1.7 | 4.3 | 0.00 | 0.00 | 0.00 | 76 | 1011.7 |
| 20260906103603 | 78 | 319 | 1.7 | 4.3 | 0.00 | 0.00 | 0.00 | 77 | 1011.7 |
| 20260906103102 | 78 | 288 | 0.0 | 0.0 | 0.00 | 0.00 | 0.00 | 79 | 1011.7 |
| 20260906102602 | 78 | 268 | 0.0 | 0.0 | 0.00 | 0.00 | 0.00 | 78 | 1011.7 |
| 20260906102101 | 78 | 261 | 0.0 | 0.0 | 0.00 | 0.00 | 0.00 | 78 | 1011.7 |
| 20260906101921 | 77 | 323 | 0.0 | 0.0 | 0.00 | 0.00 | 0.00 | 80 | 1011.7 |
| 20260906101102 | 77 | 323 | 0.0 | 0.0 | 0.00 | 0.00 | 0.00 | 79 | 1011.7 |
| 20260906100600 | 77 | 323 | 0.0 | 0.0 | 0.00 | 0.00 | 0.00 | 79 | 1011.7 |
| 20260906095604 | 77 | 321 | 0.0 | 0.0 | 0.00 | 0.00 | 0.00 | 78 | 1011.7 |
| 20260906095101 | 78 | 321 | 0.0 | 0.0 | 0.00 | 0.00 | 0.00 | 77 | 1011.7 |
| 20260906094602 | 78 | 321 | 0.0 | 0.0 | 0.00 | 0.00 | 0.00 | 77 | 1011.6 |
| 20260906094428 | 78 | 321 | 0.0 | 0.0 | 0.00 | 0.00 | 0.00 | 78 | 1011.4 |
| 20260906093600 | 78 | 321 | 0.0 | 0.0 | 0.00 | 0.00 | 0.00 | 78 | 1011.5 |
| 20260906093102 | 78 | 321 | 0.0 | 0.0 | 0.00 | 0.00 | 0.00 | 78 | 1011.5 |
| 20260906092600 | 78 | 321 | 0.0 | 0.0 | 0.00 | 0.00 | 0.00 | 78 | 1011.5 |
| 20260906092055 | 78 | 317 | 0.0 | 0.0 | 0.00 | 0.00 | 0.00 | 78 | 1011.5 |
| 20260906091553 | 78 | 290 | 0.0 | 0.0 | 0.00 | 0.00 | 0.00 | 76 | 1011.5 |
| 20260906091054 | 79 | 290 | 0.0 | 0.0 | 0.00 | 0.00 | 0.00 | 76 | 1011.5 |
| 20260906090556 | 79 | 286 | 0.0 | 0.0 | 0.00 | 0.00 | 0.00 | 76 | 1011.4 |
| 20260906090055 | 79 | 334 | 0.0 | 0.0 | 0.00 | 0.00 | 0.00 | 76 | 1011.4 |
| 20260906085552 | 79 | 334 | 0.0 | 0.0 | 0.00 | 0.00 | 0.00 | 76 | 1011.4 |
| 20260906085053 | 79 | 323 | 0.0 | 0.0 | 0.00 | 0.00 | 0.00 | 76 | 1011.4 |
| 20260906084554 | 78 | 0 | 0.0 | 0.0 | 0.00 | 0.00 | 0.00 | 77 | 1011.3 |
| 20260906084052 | 79 | 0 | 0.0 | 0.0 | 0.00 | 0.00 | 0.00 | 76 | 1011.3 |
| 20260906083554 | 79 | 0 | 0.0 | 0.0 | 0.00 | 0.00 | 0.00 | 76 | 1011.2 |
| 20260906083053 | 79 | 0 | 0.0 | 0.0 | 0.00 | 0.00 | 0.00 | 75 | 1011.2 |
| 20260906082554 | 79 | 0 | 0.0 | 0.0 | 0.00 | 0.00 | 0.00 | 75 | 1011.2 |
| 20260906082055 | 79 | 0 | 0.0 | 0.0 | 0.00 | 0.00 | 0.00 | 75 | 1011.2 |
| 20260906081915 | 79 | 0 | 0.0 | 0.0 | 0.00 | 0.00 | 0.00 | 75 | 1011.1 |
| 20260906081054 | 79 | 0 | 0.0 | 0.0 | 0.00 | 0.00 | 0.00 | 75 | 1011.2 |
| 20260906080555 | 80 | 0 | 0.0 | 0.0 | 0.00 | 0.00 | 0.00 | 75 | 1011.1 |
| 20260906080053 | 80 | 0 | 0.0 | 0.0 | 0.00 | 0.00 | 0.00 | 74 | 1011.2 |
| 20260906075553 | 80 | 0 | 0.0 | 0.0 | 0.00 | 0.00 | 0.00 | 75 | 1011.2 |
| 20260906075053 | 80 | 0 | 0.0 | 0.0 | 0.00 | 0.00 | 0.00 | 75 | 1011.2 |
| 20260906074554 | 79 | 0 | 0.0 | 0.0 | 0.00 | 0.00 | 0.00 | 74 | 1011.3 |
| 20260906074053 | 80 | 0 | 0.0 | 0.0 | 0.00 | 0.00 | 0.00 | 75 | 1011.2 |
| 20260906073555 | 80 | 0 | 0.0 | 0.0 | 0.00 | 0.00 | 0.00 | 74 | 1011.3 |
| 20260906073054 | 79 | 0 | 0.0 | 0.0 | 0.00 | 0.00 | 0.00 | 75 | 1011.4 |
| 20260906072553 | 80 | 0 | 0.0 | 0.0 | 0.00 | 0.00 | 0.00 | 74 | 1011.4 |
| 20260906072419 | 80 | 0 | 0.0 | 0.0 | 0.00 | 0.00 | 0.00 | 73 | 1011.5 |
| 20260906071555 | 80 | 0 | 0.0 | 0.0 | 0.00 | 0.00 | 0.00 | 72 | 1011.5 |
| 20260906071053 | 80 | 0 | 0.0 | 0.0 | 0.00 | 0.00 | 0.00 | 72 | 1011.6 |
| 20260906070553 | 80 | 0 | 0.0 | 0.0 | 0.00 | 0.00 | 0.00 | 72 | 1011.6 |
| 20260906070052 | 80 | 0 | 0.0 | 0.0 | 0.00 | 0.00 | 0.00 | 72 | 1011.7 |
| 20260906065909 | 80 | 0 | 0.0 | 0.0 | 0.00 | 0.00 | 0.00 | 72 | 1011.8 |
| 20260906065414 | 80 | 0 | 0.0 | 0.0 | 0.00 | 0.00 | 0.00 | 72 | 1011.7 |
| 20260906064910 | 81 | 336 | 0.0 | 0.0 | 0.00 | 0.00 | 0.00 | 71 | 1011.7 |
| 20260906064054 | 80 | 336 | 0.0 | 0.0 | 0.00 | 0.00 | 0.00 | 72 | 1011.7 |
| 20260906063554 | 80 | 17 | 0.0 | 0.0 | 0.00 | 0.00 | 0.00 | 72 | 1011.8 |
| 20260906063052 | 80 | 272 | 0.0 | 0.0 | 0.00 | 0.00 | 0.00 | 72 | 1011.8 |
| 20260906062553 | 80 | 272 | 0.0 | 0.0 | 0.00 | 0.00 | 0.00 | 72 | 1011.7 |
| 20260906062053 | 80 | 272 | 0.0 | 0.0 | 0.00 | 0.00 | 0.00 | 72 | 1011.7 |
| 20260906061555 | 81 | 71 | 0.0 | 0.0 | 0.00 | 0.00 | 0.00 | 71 | 1011.8 |
| 20260906061054 | 81 | 73 | 0.0 | 0.0 | 0.00 | 0.00 | 0.00 | 70 | 1011.8 |
| 20260906060910 | 81 | 58 | 0.0 | 0.0 | 0.00 | 0.00 | 0.00 | 69 | 1011.7 |
| 20260906060412 | 81 | 55 | 0.0 | 0.0 | 0.00 | 0.00 | 0.00 | 70 | 1011.7 |
| 20260906055552 | 81 | 258 | 0.0 | 0.0 | 0.00 | 0.00 | 0.00 | 70 | 1011.6 |
| 20260906055052 | 81 | 258 | 0.0 | 0.0 | 0.00 | 0.00 | 0.00 | 69 | 1011.7 |
| 20260906054555 | 82 | 258 | 0.0 | 0.0 | 0.00 | 0.00 | 0.00 | 68 | 1011.8 |
| 20260906054054 | 82 | 28 | 0.0 | 0.0 | 0.00 | 0.00 | 0.00 | 68 | 1011.7 |
| 20260906053552 | 82 | 44 | 0.0 | 0.0 | 0.00 | 0.00 | 0.00 | 69 | 1011.6 |
| 20260906053054 | 81 | 38 | 0.0 | 0.0 | 0.00 | 0.00 | 0.00 | 69 | 1011.6 |
| 20260906052555 | 81 | 38 | 0.0 | 0.0 | 0.00 | 0.00 | 0.00 | 68 | 1011.7 |
| 20260906052416 | 82 | 38 | 0.0 | 0.0 | 0.00 | 0.00 | 0.00 | 67 | 1011.6 |
| 20260906051554 | 83 | 38 | 0.0 | 0.0 | 0.00 | 0.00 | 0.00 | 67 | 1011.6 |
| 20260906051052 | 83 | 38 | 0.0 | 0.0 | 0.00 | 0.00 | 0.00 | 65 | 1011.5 |
| 20260906050555 | 83 | 0 | 0.0 | 0.0 | 0.00 | 0.00 | 0.00 | 64 | 1011.4 |
| 20260906050053 | 83 | 0 | 0.0 | 0.0 | 0.00 | 0.00 | 0.00 | 64 | 1011.4 |
| 20260906045552 | 83 | 52 | 0.0 | 0.0 | 0.00 | 0.00 | 0.00 | 65 | 1011.4 |
| 20260906045419 | 84 | 58 | 0.0 | 0.0 | 0.00 | 0.00 | 0.00 | 64 | 1011.4 |
| 20260906044554 | 83 | 55 | 0.0 | 0.0 | 0.00 | 0.00 | 0.00 | 64 | 1011.3 |
| 20260906044054 | 84 | 55 | 0.0 | 1.7 | 0.00 | 0.00 | 0.00 | 63 | 1011.2 |
| 20260906043910 | 84 | 55 | 0.0 | 1.7 | 0.00 | 0.00 | 0.00 | 63 | 1011.2 |
| 20260906043053 | 84 | 55 | 0.0 | 0.0 | 0.00 | 0.00 | 0.00 | 63 | 1011.2 |
| 20260906042553 | 84 | 55 | 0.0 | 0.0 | 0.00 | 0.00 | 0.00 | 64 | 1011.2 |
| 20260906042053 | 84 | 55 | 0.0 | 0.9 | 0.00 | 0.00 | 0.00 | 64 | 1011.2 |
| 20260906041555 | 84 | 55 | 0.0 | 1.7 | 0.00 | 0.00 | 0.00 | 63 | 1011.3 |
| 20260906041053 | 84 | 55 | 0.0 | 1.7 | 0.00 | 0.00 | 0.00 | 63 | 1011.2 |
| 20260906040552 | 85 | 281 | 0.0 | 0.0 | 0.00 | 0.00 | 0.00 | 61 | 1011.3 |
| 20260906040055 | 85 | 281 | 0.0 | 0.9 | 0.00 | 0.00 | 0.00 | 61 | 1011.4 |
| 20260906035553 | 85 | 281 | 0.0 | 1.7 | 0.00 | 0.00 | 0.00 | 59 | 1011.4 |
| 20260906035415 | 85 | 288 | 0.9 | 1.7 | 0.00 | 0.00 | 0.00 | 60 | 1011.4 |
| 20260906034919 | 85 | 14 | 0.0 | 1.7 | 0.00 | 0.00 | 0.00 | 60 | 1011.4 |
| 20260906034410 | 86 | 7 | 0.0 | 1.7 | 0.00 | 0.00 | 0.00 | 60 | 1011.5 |
| 20260906033554 | 85 | 1 | 0.0 | 0.0 | 0.00 | 0.00 | 0.00 | 60 | 1011.6 |
| 20260906033053 | 86 | 1 | 0.0 | 1.7 | 0.00 | 0.00 | 0.00 | 59 | 1011.5 |
| 20260906032554 | 86 | 1 | 0.0 | 1.7 | 0.00 | 0.00 | 0.00 | 58 | 1011.6 |
| 20260906032417 | 87 | 23 | 0.0 | 1.7 | 0.00 | 0.00 | 0.00 | 58 | 1011.7 |
| 20260906031553 | 87 | 8 | 0.0 | 1.7 | 0.00 | 0.00 | 0.00 | 58 | 1011.7 |
| 20260906031052 | 86 | 44 | 0.0 | 0.0 | 0.00 | 0.00 | 0.00 | 58 | 1011.7 |
| 20260906030552 | 87 | 44 | 0.0 | 0.0 | 0.00 | 0.00 | 0.00 | 56 | 1011.6 |
| 20260906030053 | 89 | 44 | 0.0 | 0.0 | 0.00 | 0.00 | 0.00 | 54 | 1011.7 |
| 20260906025553 | 89 | 44 | 0.0 | 0.0 | 0.00 | 0.00 | 0.00 | 53 | 1011.5 |
| 20260906025052 | 88 | 44 | 0.0 | 0.0 | 0.00 | 0.00 | 0.00 | 55 | 1011.5 |
| 20260906024554 | 88 | 44 | 0.0 | 0.0 | 0.00 | 0.00 | 0.00 | 55 | 1011.4 |
| 20260906024055 | 89 | 44 | 0.0 | 0.0 | 0.00 | 0.00 | 0.00 | 53 | 1011.4 |
| 20260906023553 | 90 | 44 | 0.0 | 0.0 | 0.00 | 0.00 | 0.00 | 51 | 1011.3 |
| 20260906023054 | 90 | 44 | 0.0 | 0.0 | 0.00 | 0.00 | 0.00 | 51 | 1011.2 |
| 20260906022918 | 90 | 44 | 0.0 | 0.0 | 0.00 | 0.00 | 0.00 | 51 | 1011.1 |
| 20260906022053 | 90 | 44 | 0.0 | 1.7 | 0.00 | 0.00 | 0.00 | 50 | 1011.1 |
| 20260906021553 | 90 | 44 | 0.0 | 1.7 | 0.00 | 0.00 | 0.00 | 51 | 1011.0 |
| 20260906021054 | 90 | 86 | 0.0 | 1.7 | 0.00 | 0.00 | 0.00 | 50 | 1010.8 |
| 20260906020553 | 90 | 61 | 0.0 | 1.7 | 0.00 | 0.00 | 0.00 | 50 | 1010.7 |
| 20260906020053 | 91 | 61 | 0.0 | 0.0 | 0.00 | 0.00 | 0.00 | 49 | 1010.7 |
| 20260906015555 | 91 | 61 | 0.0 | 1.7 | 0.00 | 0.00 | 0.00 | 49 | 1010.7 |
| 20260906015052 | 92 | 61 | 0.0 | 1.7 | 0.00 | 0.00 | 0.00 | 49 | 1010.6 |
| 20260906014555 | 91 | 62 | 0.0 | 1.7 | 0.00 | 0.00 | 0.00 | 49 | 1010.6 |
| 20260906014418 | 91 | 56 | 0.0 | 1.7 | 0.00 | 0.00 | 0.00 | 50 | 1010.5 |
| 20260906013546 | 90 | 271 | 0.0 | 2.6 | 0.00 | 0.00 | 0.00 | 52 | 1010.5 |
| 20260906013045 | 89 | 296 | 1.7 | 2.6 | 0.00 | 0.00 | 0.00 | 52 | 1010.5 |
| 20260906012536 | 90 | 0 | 0.0 | 1.7 | 0.00 | 0.00 | 0.00 | 54 | 1010.3 |
| 20260906012401 | 92 | 90 | 0.0 | 1.7 | 0.00 | 0.00 | 0.00 | 47 | 1010.1 |
| 20260906011902 | 93 | 90 | 0.0 | 1.7 | 0.00 | 0.00 | 0.00 | 46 | 1010.1 |
| 20260906011030 | 93 | 116 | 0.0 | 1.7 | 0.00 | 0.00 | 0.00 | 46 | 1010.1 |
| 20260906010529 | 94 | 61 | 1.7 | 1.7 | 0.00 | 0.00 | 0.00 | 46 | 1009.9 |
| 20260906010030 | 94 | 52 | 0.9 | 1.7 | 0.00 | 0.00 | 0.00 | 46 | 1010.0 |
| 20260906005531 | 94 | 65 | 0.0 | 1.7 | 0.00 | 0.00 | 0.00 | 46 | 1009.9 |
| 20260906005029 | 94 | 107 | 0.0 | 1.7 | 0.00 | 0.00 | 0.00 | 45 | 1009.9 |
| 20260906004532 | 94 | 94 | 0.0 | 0.9 | 0.00 | 0.00 | 0.00 | 46 | 1009.9 |
| 20260906004031 | 94 | 85 | 0.0 | 1.7 | 0.00 | 0.00 | 0.00 | 45 | 1010.0 |
| 20260906003530 | 94 | 125 | 0.0 | 1.7 | 0.00 | 0.00 | 0.00 | 46 | 1010.1 |
| 20260906003027 | 95 | 99 | 0.0 | 1.7 | 0.00 | 0.00 | 0.00 | 44 | 1010.0 |
| 20260906002527 | 95 | 97 | 0.0 | 2.6 | 0.00 | 0.00 | 0.00 | 45 | 1010.1 |
| 20260906002027 | 95 | 102 | 0.9 | 2.6 | 0.00 | 0.00 | 0.00 | 44 | 1010.0 |
| 20260906001518 | 95 | 47 | 0.0 | 1.7 | 0.00 | 0.00 | 0.00 | 45 | 1010.1 |
| 20260906001018 | 95 | 34 | 0.0 | 1.7 | 0.00 | 0.00 | 0.00 | 44 | 1010.1 |
| 20260906000516 | 96 | 48 | 0.0 | 1.7 | 0.00 | 0.00 | 0.00 | 44 | 1010.1 |
| 20260906000013 | 96 | 48 | 0.0 | 1.7 | 0.00 | 0.00 | 0.00 | 44 | 1010.0 |
| 20260905235511 | 96 | 92 | 0.0 | 1.7 | 0.00 | 0.00 | 0.00 | 43 | 1010.1 |
| 20260905235008 | 96 | 102 | 0.9 | 1.7 | 0.00 | 0.00 | 0.00 | 43 | 1010.0 |
| 20260905234506 | 97 | 93 | 0.9 | 1.7 | 0.00 | 0.00 | 0.00 | 42 | 1010.0 |
| 20260905234003 | 97 | 85 | 0.9 | 1.7 | 0.00 | 0.00 | 0.00 | 42 | 1010.0 |
| 20260905233503 | 97 | 130 | 0.0 | 1.7 | 0.00 | 0.00 | 0.00 | 42 | 1009.9 |
| 20260905233001 | 97 | 111 | 0.9 | 2.6 | 0.00 | 0.00 | 0.00 | 41 | 1010.0 |
| 20260905232459 | 97 | 92 | 0.9 | 2.6 | 0.00 | 0.00 | 0.00 | 41 | 1010.0 |
| 20260905231958 | 98 | 123 | 0.9 | 2.6 | 0.00 | 0.00 | 0.00 | 41 | 1010.0 |
| 20260905231457 | 98 | 138 | 1.7 | 2.6 | 0.00 | 0.00 | 0.00 | 40 | 1010.0 |
| 20260905230956 | 98 | 130 | 1.7 | 3.5 | 0.00 | 0.00 | 0.00 | 40 | 1010.1 |
| 20260905230453 | 98 | 179 | 0.9 | 4.3 | 0.00 | 0.00 | 0.00 | 39 | 1010.1 |
| 20260905225954 | 98 | 117 | 0.9 | 4.3 | 0.00 | 0.00 | 0.00 | 39 | 1010.1 |
| 20260905225455 | 98 | 54 | 1.7 | 4.3 | 0.00 | 0.00 | 0.00 | 39 | 1010.1 |
| 20260905224950 | 98 | 82 | 1.7 | 4.3 | 0.00 | 0.00 | 0.00 | 39 | 1010.1 |
| 20260905224453 | 98 | 110 | 1.7 | 4.3 | 0.00 | 0.00 | 0.00 | 40 | 1010.0 |
| 20260905224140 | 99 | 152 | 2.6 | 5.2 | 0.00 | 0.00 | 0.00 | 40 | 1010.1 |
| 20260905224056 | 99 | 86 | 1.7 | 5.2 | 0.00 | 0.00 | 0.00 | 40 | 1010.0 |
| 20260905222951 | 100 | 121 | 1.7 | 5.2 | 0.00 | 0.00 | 0.00 | 39 | 1010.2 |
| 20260905222452 | 100 | 79 | 3.5 | 5.2 | 0.00 | 0.00 | 0.00 | 38 | 1010.0 |
| 20260905221952 | 101 | 227 | 1.7 | 4.3 | 0.00 | 0.00 | 0.00 | 37 | 1010.0 |
| 20260905221655 | 100 | 178 | 1.7 | 5.2 | 0.00 | 0.00 | 0.00 | 38 | 1010.1 |
| 20260905221605 | 101 | 130 | 1.7 | 3.5 | 0.00 | 0.00 | 0.00 | 38 | 1010.0 |
| 20260905220452 | 100 | 75 | 2.6 | 5.2 | 0.00 | 0.00 | 0.00 | 39 | 1010.1 |
| 20260905215953 | 100 | 189 | 1.7 | 3.5 | 0.00 | 0.00 | 0.00 | 40 | 1010.0 |
| 20260905215452 | 99 | 164 | 1.7 | 3.5 | 0.00 | 0.00 | 0.00 | 40 | 1010.2 |
| 20260905214952 | 99 | 128 | 0.9 | 3.5 | 0.00 | 0.00 | 0.00 | 39 | 1010.0 |
| 20260905214453 | 99 | 151 | 1.7 | 3.5 | 0.00 | 0.00 | 0.00 | 40 | 1010.2 |
| 20260905213951 | 99 | 171 | 0.9 | 3.5 | 0.00 | 0.00 | 0.00 | 41 | 1010.2 |
| 20260905213453 | 99 | 124 | 0.9 | 3.5 | 0.00 | 0.00 | 0.00 | 40 | 1010.2 |
| 20260905212953 | 100 | 0 | 1.7 | 3.5 | 0.00 | 0.00 | 0.00 | 41 | 1010.1 |
| 20260905212451 | 99 | 128 | 1.7 | 3.5 | 0.00 | 0.00 | 0.00 | 42 | 1010.2 |
| 20260905211953 | 98 | 125 | 0.9 | 3.5 | 0.00 | 0.00 | 0.00 | 43 | 1010.3 |
| 20260905211453 | 98 | 183 | 0.9 | 3.5 | 0.00 | 0.00 | 0.00 | 43 | 1010.3 |
| 20260905210951 | 98 | 133 | 0.9 | 6.1 | 0.00 | 0.00 | 0.00 | 45 | 1010.3 |
| 20260905210452 | 98 | 148 | 0.9 | 7.8 | 0.00 | 0.00 | 0.00 | 42 | 1010.4 |
| 20260905205952 | 99 | 172 | 2.6 | 7.8 | 0.00 | 0.00 | 0.00 | 42 | 1010.6 |
| 20260905205454 | 99 | 0 | 2.6 | 6.1 | 0.00 | 0.00 | 0.00 | 43 | 1010.6 |
| 20260905204953 | 97 | 157 | 2.6 | 7.8 | 0.00 | 0.00 | 0.00 | 49 | 1010.8 |
| 20260905204452 | 96 | 209 | 3.5 | 10.4 | 0.00 | 0.00 | 0.00 | 48 | 1010.7 |
| 20260905203953 | 95 | 230 | 4.3 | 11.3 | 0.00 | 0.00 | 0.00 | 48 | 1010.9 |
| 20260905203452 | 95 | 199 | 6.1 | 13.0 | 0.00 | 0.00 | 0.00 | 48 | 1011.0 |
| 20260905202954 | 96 | 212 | 6.1 | 13.0 | 0.00 | 0.00 | 0.00 | 47 | 1010.9 |
| 20260905202451 | 97 | 257 | 6.1 | 13.0 | 0.00 | 0.00 | 0.00 | 43 | 1011.0 |
| 20260905201953 | 99 | 213 | 4.3 | 11.3 | 0.00 | 0.00 | 0.00 | 42 | 1011.0 |
| 20260905201451 | 100 | 248 | 1.7 | 3.5 | 0.00 | 0.00 | 0.00 | 40 | 1011.1 |
| 20260905200952 | 100 | 192 | 1.7 | 3.5 | 0.00 | 0.00 | 0.00 | 42 | 1011.0 |
| 20260905200453 | 100 | 135 | 0.9 | 3.5 | 0.00 | 0.00 | 0.00 | 41 | 1011.1 |
| 20260905195951 | 100 | 124 | 1.7 | 6.1 | 0.00 | 0.00 | 0.00 | 41 | 1011.2 |
| 20260905195453 | 100 | 144 | 1.7 | 6.1 | 0.00 | 0.00 | 0.00 | 39 | 1011.3 |
| 20260905194952 | 101 | 164 | 2.6 | 5.2 | 0.00 | 0.00 | 0.00 | 38 | 1011.4 |
| 20260905194455 | 102 | 85 | 2.6 | 4.3 | 0.00 | 0.00 | 0.00 | 37 | 1011.3 |
| 20260905193952 | 102 | 207 | 2.6 | 4.3 | 0.00 | 0.00 | 0.00 | 39 | 1011.3 |
| 20260905193454 | 101 | 76 | 1.7 | 3.5 | 0.00 | 0.00 | 0.00 | 40 | 1011.4 |
| 20260905193316 | 99 | 196 | 0.9 | 2.6 | 0.00 | 0.00 | 0.00 | 38 | 1011.4 |
| 20260905192450 | 99 | 140 | 0.9 | 3.5 | 0.00 | 0.00 | 0.00 | 39 | 1011.6 |
| 20260905191952 | 99 | 85 | 2.6 | 3.5 | 0.00 | 0.00 | 0.00 | 38 | 1011.6 |
| 20260905191452 | 100 | 305 | 0.0 | 4.3 | 0.00 | 0.00 | 0.00 | 39 | 1011.6 |
| 20260905190951 | 99 | 289 | 0.9 | 4.3 | 0.00 | 0.00 | 0.00 | 41 | 1011.7 |
| 20260905190453 | 99 | 52 | 2.6 | 4.3 | 0.00 | 0.00 | 0.00 | 39 | 1011.7 |
| 20260905185954 | 100 | 82 | 1.7 | 4.3 | 0.00 | 0.00 | 0.00 | 39 | 1011.8 |
| 20260905185453 | 100 | 13 | 0.9 | 4.3 | 0.00 | 0.00 | 0.00 | 38 | 1011.8 |
| 20260905184952 | 102 | 354 | 2.6 | 4.3 | 0.00 | 0.00 | 0.00 | 38 | 1011.9 |
| 20260905184453 | 101 | 7 | 1.7 | 5.2 | 0.00 | 0.00 | 0.00 | 38 | 1012.0 |
| 20260905183953 | 102 | 107 | 0.9 | 7.8 | 0.00 | 0.00 | 0.00 | 38 | 1011.9 |
| 20260905183451 | 103 | 193 | 1.7 | 7.8 | 0.00 | 0.00 | 0.00 | 37 | 1012.2 |
| 20260905182951 | 102 | 347 | 2.6 | 6.1 | 0.00 | 0.00 | 0.00 | 38 | 1012.1 |
| 20260905182452 | 101 | 195 | 2.6 | 5.2 | 0.00 | 0.00 | 0.00 | 40 | 1012.2 |
| 20260905181953 | 101 | 117 | 2.6 | 5.2 | 0.00 | 0.00 | 0.00 | 38 | 1012.2 |
| 20260905181453 | 101 | 251 | 1.7 | 4.3 | 0.00 | 0.00 | 0.00 | 37 | 1012.2 |
| 20260905181316 | 101 | 226 | 1.7 | 6.1 | 0.00 | 0.00 | 0.00 | 38 | 1012.3 |
| 20260905180453 | 101 | 164 | 3.5 | 6.1 | 0.00 | 0.00 | 0.00 | 38 | 1012.3 |
| 20260905175954 | 100 | 159 | 2.6 | 5.2 | 0.00 | 0.00 | 0.00 | 39 | 1012.4 |
| 20260905175452 | 101 | 83 | 1.7 | 5.2 | 0.00 | 0.00 | 0.00 | 39 | 1012.4 |
| 20260905175315 | 100 | 59 | 3.5 | 6.1 | 0.00 | 0.00 | 0.00 | 40 | 1012.6 |
| 20260905174452 | 100 | 117 | 3.5 | 6.1 | 0.00 | 0.00 | 0.00 | 39 | 1012.7 |
| 20260905173952 | 100 | 107 | 1.7 | 5.2 | 0.00 | 0.00 | 0.00 | 41 | 1012.8 |
| 20260905173454 | 99 | 83 | 3.5 | 5.2 | 0.00 | 0.00 | 0.00 | 45 | 1012.8 |
| 20260905172954 | 98 | 293 | 0.9 | 5.2 | 0.00 | 0.00 | 0.00 | 43 | 1012.9 |
| 20260905172454 | 99 | 71 | 1.7 | 5.2 | 0.00 | 0.00 | 0.00 | 40 | 1012.9 |
| 20260905171953 | 100 | 171 | 2.6 | 4.3 | 0.00 | 0.00 | 0.00 | 40 | 1013.0 |
| 20260905171453 | 100 | 331 | 1.7 | 3.5 | 0.00 | 0.00 | 0.00 | 44 | 1013.0 |
| 20260905170951 | 100 | 162 | 1.7 | 4.3 | 0.00 | 0.00 | 0.00 | 42 | 1013.1 |
| 20260905170453 | 99 | 223 | 2.6 | 4.3 | 0.00 | 0.00 | 0.00 | 42 | 1013.1 |
| 20260905165950 | 98 | 135 | 0.9 | 6.1 | 0.00 | 0.00 | 0.00 | 41 | 1013.3 |
| 20260905165448 | 98 | 87 | 4.3 | 6.1 | 0.00 | 0.00 | 0.00 | 41 | 1013.4 |
| 20260905164947 | 98 | 59 | 2.6 | 6.1 | 0.00 | 0.00 | 0.00 | 45 | 1013.4 |
| 20260905164447 | 98 | 20 | 1.7 | 4.3 | 0.00 | 0.00 | 0.00 | 42 | 1013.4 |
| 20260905163942 | 97 | 175 | 1.7 | 5.2 | 0.00 | 0.00 | 0.00 | 43 | 1013.5 |
| 20260905163443 | 98 | 124 | 0.9 | 5.2 | 0.00 | 0.00 | 0.00 | 43 | 1013.5 |
| 20260905163307 | 97 | 212 | 0.9 | 5.2 | 0.00 | 0.00 | 0.00 | 43 | 1013.6 |
| 20260905162436 | 98 | 219 | 1.7 | 3.5 | 0.00 | 0.00 | 0.00 | 43 | 1013.6 |
| 20260905162305 | 98 | 238 | 2.6 | 3.5 | 0.00 | 0.00 | 0.00 | 42 | 1013.7 |
| 20260905161435 | 98 | 258 | 0.9 | 3.5 | 0.00 | 0.00 | 0.00 | 45 | 1013.7 |
| 20260905160935 | 96 | 87 | 1.7 | 3.5 | 0.00 | 0.00 | 0.00 | 45 | 1013.8 |
| 20260905160758 | 97 | 172 | 0.9 | 3.5 | 0.00 | 0.00 | 0.00 | 44 | 1013.8 |
| 20260905155934 | 97 | 39 | 0.9 | 3.5 | 0.00 | 0.00 | 0.00 | 46 | 1013.9 |
| 20260905155431 | 97 | 120 | 1.7 | 3.5 | 0.00 | 0.00 | 0.00 | 45 | 1013.8 |
| 20260905154931 | 97 | 35 | 0.0 | 4.3 | 0.00 | 0.00 | 0.00 | 48 | 1013.8 |
| 20260905154429 | 96 | 56 | 2.6 | 5.2 | 0.00 | 0.00 | 0.00 | 47 | 1013.9 |
| 20260905153928 | 96 | 114 | 2.6 | 5.2 | 0.00 | 0.00 | 0.00 | 47 | 1013.9 |
| 20260905153429 | 96 | 0 | 2.6 | 4.3 | 0.00 | 0.00 | 0.00 | 46 | 1013.8 |
| 20260905153247 | 96 | 133 | 0.9 | 3.5 | 0.00 | 0.00 | 0.00 | 48 | 1013.8 |
| 20260905152420 | 95 | 32 | 1.7 | 4.3 | 0.00 | 0.00 | 0.00 | 49 | 1013.8 |
| 20260905151917 | 94 | 99 | 1.7 | 4.3 | 0.00 | 0.00 | 0.00 | 48 | 1013.8 |
| 20260905151415 | 94 | 324 | 0.9 | 2.6 | 0.00 | 0.00 | 0.00 | 53 | 1013.9 |
| 20260905151241 | 93 | 257 | 1.7 | 2.6 | 0.00 | 0.00 | 0.00 | 53 | 1013.9 |